Location: Borovka
(49.7741°N, 14.5280°E)
Time: 17:33:53
(UTC+00:00)

DUCHIFAT 1 - Visible Passes

Search period start: 07 March 2026 00:00
Search period end: 17 March 2026 00:00
Orbit: 414 x 423 km, 98.1° (Epoch: 7 March)

Date Brightness Start Highest point End Pass type
(mag) Time Alt. Az. Time Alt. Az. Time Alt. Az.
7 Mar ? 18:31:15 44° E 18:31:33 45° ENE 18:34:39 10° N visible
7 Mar ? 20:04:14 12° W 20:04:14 12° W 20:05:17 10° WNW visible
8 Mar ? 17:46:01 13° E 17:47:09 15° ENE 17:49:01 10° NNE visible
8 Mar ? 19:18:59 41° W 19:18:59 41° W 19:21:57 10° NNW visible
9 Mar ? 18:33:38 43° E 18:34:05 47° ENE 18:37:12 10° N visible
9 Mar ? 20:06:36 12° W 20:06:36 12° W 20:07:42 10° WNW visible
10 Mar ? 17:48:10 12° E 17:49:28 15° ENE 17:51:24 10° NNE visible
10 Mar ? 19:21:08 39° WSW 19:21:13 39° W 19:24:16 10° NNW visible
11 Mar ? 18:35:33 41° ESE 18:36:12 49° ENE 18:39:18 10° N visible
11 Mar ? 20:08:31 11° W 20:08:31 11° W 20:09:41 10° WNW visible
12 Mar ? 17:49:53 12° E 17:51:21 15° ENE 17:53:19 10° NNE visible
12 Mar ? 19:22:50 38° WSW 19:23:06 38° W 19:26:08 10° NNW visible
13 Mar ? 18:37:02 38° ESE 18:37:51 50° ENE 18:40:59 10° N visible
13 Mar ? 20:10:00 11° W 20:10:10 11° W 20:11:15 10° WNW visible
14 Mar ? 17:51:09 11° E 17:52:48 16° ENE 17:54:46 10° NNE visible
14 Mar ? 19:24:05 36° WSW 19:24:31 38° W 19:27:33 10° NNW visible
15 Mar ? 18:38:05 35° SE 18:39:04 50° ENE 18:42:11 10° N visible
15 Mar ? 20:11:01 11° W 20:11:22 11° W 20:12:26 10° WNW visible
16 Mar ? 17:51:59 11° E 17:53:47 15° ENE 17:55:46 10° NNE visible
16 Mar ? 19:24:54 34° SW 19:25:31 38° W 19:28:32 10° NNW visible
